TimeCDT,TemperatureF,Dew PointF,Humidity,Sea Level PressureIn,VisibilityMPH,Wind Direction,Wind SpeedMPH,Gust SpeedMPH,PrecipitationIn,Events,Conditions,WindDirDegrees,DateUTC
12:53 AM,80.1,62.1,54,29.94,10.0,South,13.8,-,N/A,,Clear,190,2013-07-19 05:53:00
1:53 AM,78.1,63.0,60,29.93,10.0,SSW,10.4,-,N/A,,Clear,200,2013-07-19 06:53:00
2:53 AM,77.0,63.0,62,29.92,10.0,SSW,9.2,-,N/A,,Clear,200,2013-07-19 07:53:00
3:53 AM,75.9,64.0,67,29.92,10.0,WSW,5.8,-,N/A,,Clear,240,2013-07-19 08:53:00
4:53 AM,73.9,64.0,71,29.90,10.0,SSW,6.9,-,N/A,,Clear,210,2013-07-19 09:53:00
5:53 AM,73.0,64.0,73,29.90,10.0,WSW,6.9,-,N/A,,Clear,250,2013-07-19 10:53:00
6:53 AM,72.0,64.0,76,29.91,10.0,WSW,4.6,-,N/A,,Clear,240,2013-07-19 11:53:00
7:53 AM,73.9,64.9,73,29.91,10.0,SW,4.6,-,N/A,,Clear,220,2013-07-19 12:53:00
8:53 AM,79.0,66.0,64,29.91,10.0,WSW,11.5,-,N/A,,Clear,240,2013-07-19 13:53:00
9:53 AM,82.0,66.0,58,29.91,10.0,WSW,5.8,-,N/A,,Clear,240,2013-07-19 14:53:00
10:53 AM,86.0,66.0,51,29.91,10.0,South,5.8,-,N/A,,Clear,190,2013-07-19 15:53:00
11:53 AM,91.0,64.9,42,29.90,10.0,East,8.1,-,N/A,,Clear,90,2013-07-19 16:53:00
12:53 PM,93.0,64.0,38,29.89,10.0,Calm,Calm,-,N/A,,Clear,0,2013-07-19 17:53:00
1:53 PM,93.0,61.0,34,29.88,10.0,Calm,Calm,-,N/A,,Mostly Cloudy,0,2013-07-19 18:53:00
2:53 PM,97.0,61.0,30,29.86,10.0,Variable,5.8,-,N/A,,Clear,0,2013-07-19 19:53:00
3:53 PM,98.1,61.0,29,29.83,10.0,NE,8.1,-,N/A,,Partly Cloudy,50,2013-07-19 20:53:00
4:53 PM,97.0,60.1,29,29.81,10.0,ESE,6.9,18.4,N/A,,Partly Cloudy,110,2013-07-19 21:53:00
5:40 PM,91.4,62.6,38,29.90,10.0,ENE,17.3,26.5,N/A,Thunderstorm,Thunderstorm,60,2013-07-19 22:40:00
5:53 PM,84.9,64.0,49,29.82,10.0,NE,15.0,33.4,N/A,Thunderstorm,Thunderstorm,50,2013-07-19 22:53:00
6:53 PM,84.9,66.9,55,29.86,10.0,ENE,13.8,20.7,N/A,Thunderstorm,Mostly Cloudy,60,2013-07-19 23:53:00
7:11 PM,78.8,68.0,69,29.95,9.0,East,13.8,21.9,0.01,Rain,Light Rain,90,2013-07-20 00:11:00
7:53 PM,75.9,69.1,79,29.91,10.0,ESE,6.9,-,0.02,Rain,Light Rain,110,2013-07-20 00:53:00
8:53 PM,73.9,66.0,76,29.90,10.0,East,8.1,-,0.00,,Clear,80,2013-07-20 01:53:00
9:53 PM,73.0,64.0,73,29.91,10.0,SE,5.8,-,N/A,,Partly Cloudy,130,2013-07-20 02:53:00
10:53 PM,73.0,64.0,73,29.94,10.0,SW,6.9,-,N/A,,Mostly Cloudy,220,2013-07-20 03:53:00
11:53 PM,73.0,66.0,79,29.94,10.0,WSW,9.2,-,N/A,,Clear,240,2013-07-20 04:53:00